����,���ϕ���(m/s),���ϕ���,�ő�u�ԕ���(m/s),�ő啗��������,�C��(��),���x(%),10���Ԉړ��ώZ�J��(mm),1���Ԉړ��ώZ�J��(mm),���J��(mm),�݌v�J��(mm)
2019-09-16T00:00:00+09:00,0.8,�k��,2.8,���k��,24.1,77.1,0,0,0,0
2019-09-16T00:01:00+09:00,0.7,�k�k��,2.8,���k��,24.2,77.1,0,0,0,0
2019-09-16T00:02:00+09:00,0.7,�k�k��,2.8,���k��,24.2,76.9,0,0,0,0
2019-09-16T00:03:00+09:00,0.7,�k�k��,2.8,���k��,24,77,0,0,0,0
2019-09-16T00:04:00+09:00,0.6,�k�k��,1.9,���k��,24,77.3,0,0,0,0
2019-09-16T00:05:00+09:00,0.6,�k�k��,2.3,�k�k��,24.2,77.3,0,0,0,0
2019-09-16T00:06:00+09:00,0.6,�k�k��,2.3,�k�k��,24.2,77.1,0,0,0,0
2019-09-16T00:07:00+09:00,0.5,�k�k��,2.3,�k�k��,24.2,77.1,0,0,0,0
2019-09-16T00:08:00+09:00,0.5,�k�k��,2.3,�k�k��,24.1,77.2,0,0,0,0
2019-09-16T00:09:00+09:00,0.5,�k��,2.3,�k�k��,24.1,77.4,0,0,0,0
2019-09-16T00:10:00+09:00,0.5,�k��,2.3,�k�k��,24.1,77.4,0,0,0,0
2019-09-16T00:11:00+09:00,0.4,���k��,2.3,�k�k��,24.1,77.6,0,0,0,0
2019-09-16T00:12:00+09:00,0.4,���k��,2.3,�k�k��,24.1,77.6,0,0,0,0
2019-09-16T00:13:00+09:00,0.4,�k��,2.3,�k�k��,24.2,77.4,0,0,0,0
2019-09-16T00:14:00+09:00,0.3,�k��,2.3,�k�k��,24,77.5,0,0,0,0
2019-09-16T00:15:00+09:00,0.2,�É�,0.7,�k,23.9,77.9,0,0,0,0
2019-09-16T00:16:00+09:00,0.2,�É�,0.7,�k,23.8,78.3,0,0,0,0
2019-09-16T00:17:00+09:00,0.2,�É�,0.6,�k�k��,23.9,78.6,0,0,0,0
2019-09-16T00:18:00+09:00,0.2,�É�,1.2,�k��,24,78.4,0,0,0,0
2019-09-16T00:19:00+09:00,,,,,,,,,,
2019-09-16T00:20:00+09:00,0.4,�k�k��,1.8,���k��,24.1,78.4,0,0,0,0
2019-09-16T00:21:00+09:00,0.5,�k�k��,1.8,���k��,24,78.5,0,0,0,0
2019-09-16T00:22:00+09:00,0.5,�k��,1.8,���k��,24,78.6,0,0,0,0
2019-09-16T00:23:00+09:00,0.4,�k��,1.8,���k��,23.9,78.8,0,0,0,0
2019-09-16T00:24:00+09:00,0.4,�k��,1.8,���k��,24,78.9,0,0,0,0
2019-09-16T00:25:00+09:00,0.5,�k��,1.8,���k��,24,78.7,0,0,0,0
2019-09-16T00:26:00+09:00,0.5,�k�k��,1.8,���k��,24,78.5,0,0,0,0
2019-09-16T00:27:00+09:00,0.5,�k�k��,1.8,���k��,24,78.5,0,0,0,0
2019-09-16T00:28:00+09:00,0.5,�k,1.8,���k��,23.9,78.6,0,0,0,0
2019-09-16T00:29:00+09:00,0.4,�k�k��,1.8,���k��,23.9,78.8,0,0,0,0
2019-09-16T00:30:00+09:00,0.3,�k�k��,1.2,�k��,23.9,78.9,0,0,0,0
2019-09-16T00:31:00+09:00,0.2,�É�,0.9,�k��,23.9,78.9,0,0,0,0
2019-09-16T00:32:00+09:00,0.2,�É�,0.9,�k��,23.8,78.9,0,0,0,0
2019-09-16T00:33:00+09:00,0.2,�É�,0.9,�k��,23.9,79.1,0,0,0,0
2019-09-16T00:34:00+09:00,0.3,�k��,0.9,�k��,24,79,0,0,0,0
2019-09-16T00:35:00+09:00,0.3,�k��,1,�k�k��,24.1,78.8,0,0,0,0
2019-09-16T00:36:00+09:00,0.3,�k�k��,1.1,�k��,23.9,78.7,0,0,0,0
2019-09-16T00:37:00+09:00,0.4,�k�k��,1.2,���k��,23.8,79.1,0,0,0,0
2019-09-16T00:38:00+09:00,0.4,�k�k��,1.2,���k��,23.8,79.3,0,0,0,0
2019-09-16T00:39:00+09:00,0.4,�k�k��,1.2,���k��,23.9,79.5,0,0,0,0
2019-09-16T00:40:00+09:00,0.5,�k�k��,1.2,���k��,23.9,79.4,0,0,0,0
2019-09-16T00:41:00+09:00,0.5,�k�k��,1.2,���k��,23.9,79.3,0,0,0,0
2019-09-16T00:42:00+09:00,0.5,�k�k��,1.2,���k��,23.7,79.4,0,0,0,0
2019-09-16T00:43:00+09:00,0.5,�k�k��,1.2,���k��,23.6,80,0,0,0,0
2019-09-16T00:44:00+09:00,0.5,�k��,1.2,���k��,23.6,80.2,0,0,0,0
2019-09-16T00:45:00+09:00,0.5,�k��,1.4,�k��,23.6,80.4,0,0,0,0
2019-09-16T00:46:00+09:00,0.5,�k��,1.4,�k��,23.7,80.5,0,0,0,0
2019-09-16T00:47:00+09:00,0.5,�k��,1.4,�k��,23.6,80.7,0,0,0,0
2019-09-16T00:48:00+09:00,0.4,�k��,1.4,�k��,23.6,80.9,0,0,0,0
2019-09-16T00:49:00+09:00,0.4,�k�k��,1.4,�k��,23.6,80.9,0,0,0,0
2019-09-16T00:50:00+09:00,0.4,�k�k��,1.4,�k��,23.6,80.9,0,0,0,0
2019-09-16T00:51:00+09:00,,,,,,,,,,
2019-09-16T00:52:00+09:00,0.4,�k�k��,1.4,�k��,23.8,80.6,0,0,0,0
2019-09-16T00:53:00+09:00,0.4,�k,1.4,�k��,23.6,80.6,0,0,0,0
2019-09-16T00:54:00+09:00,0.3,�k,1.4,�k��,23.7,80.8,0,0,0,0
2019-09-16T00:55:00+09:00,0.4,�k�k��,1.4,�k��,23.5,80.9,0,0,0,0
2019-09-16T00:56:00+09:00,0.3,�k�k��,1.7,��,23.6,81.1,0,0,0,0
2019-09-16T00:57:00+09:00,0.4,�k�k��,2.3,���k��,23.7,81.1,0,0,0,0
2019-09-16T00:58:00+09:00,0.5,�k��,2.3,���k��,23.7,80.8,0,0,0,0
2019-09-16T00:59:00+09:00,0.5,�k��,2.3,���k��,23.6,80.7,0,0,0,0
2019-09-16T01:00:00+09:00,0.5,�k�k��,2.3,���k��,23.5,80.9,0,0,0,0
2019-09-16T01:01:00+09:00,0.5,�k�k��,2.3,���k��,23.6,81.2,0,0,0,0
2019-09-16T01:02:00+09:00,0.6,�k�k��,2.3,���k��,23.7,81,0,0,0,0
2019-09-16T01:03:00+09:00,0.6,�k,2.3,���k��,23.7,80.8,0,0,0,0
2019-09-16T01:04:00+09:00,0.5,�k�k��,2.3,���k��,23.7,80.8,0,0,0,0
2019-09-16T01:05:00+09:00,0.5,�k�k��,2.3,���k��,23.7,80.7,0,0,0,0
2019-09-16T01:06:00+09:00,0.5,�k,2.3,���k��,23.7,80.8,0,0,0,0
2019-09-16T01:07:00+09:00,0.4,�k�k��,1.8,���k��,23.8,80.6,0,0,0,0
2019-09-16T01:08:00+09:00,0.4,�k��,1.1,�k��,23.8,80.6,0,0,0,0
2019-09-16T01:09:00+09:00,0.5,�k��,1.2,���k��,23.8,80.5,0,0,0,0
2019-09-16T01:10:00+09:00,0.5,�k��,1.6,�k�k��,23.7,80.6,0,0,0,0
2019-09-16T01:11:00+09:00,0.5,�k��,1.6,�k�k��,23.6,80.8,0,0,0,0
2019-09-16T01:12:00+09:00,0.5,�k��,1.6,�k�k��,23.7,80.9,0,0,0,0
2019-09-16T01:13:00+09:00,0.6,�k�k��,1.6,�k�k��,23.8,80.5,0,0,0,0
2019-09-16T01:14:00+09:00,0.7,�k�k��,1.7,�k��,23.9,80.3,0,0,0,0
2019-09-16T01:15:00+09:00,0.7,�k,1.7,�k��,24,79.7,0,0,0,0
2019-09-16T01:16:00+09:00,0.7,�k,1.7,�k��,24,79.3,0,0,0,0
2019-09-16T01:17:00+09:00,0.7,�k�k��,1.7,�k��,23.8,79.5,0,0,0,0
2019-09-16T01:18:00+09:00,0.7,�k�k��,1.7,�k��,23.8,79.8,0,0,0,0
2019-09-16T01:19:00+09:00,0.7,�k��,1.7,�k��,23.8,80,0,0,0,0
2019-09-16T01:20:00+09:00,0.6,�k��,1.7,�k��,23.9,79.9,0,0,0,0
2019-09-16T01:21:00+09:00,0.6,���k��,1.7,�k��,23.8,79.8,0,0,0,0
2019-09-16T01:22:00+09:00,0.5,�k��,1.7,�k��,23.9,80.1,0,0,0,0
2019-09-16T01:23:00+09:00,,,,,,,,,,
2019-09-16T01:24:00+09:00,0.4,�k��,1.4,���k��,23.6,80.6,0,0,0,0
2019-09-16T01:25:00+09:00,0.4,�k��,1.4,���k��,23.3,81,0,0,0,0
2019-09-16T01:26:00+09:00,0.3,�k��,0.9,�k��,23.2,81.6,0,0,0,0
2019-09-16T01:27:00+09:00,0.3,�k��,0.9,�k��,23.2,82.1,0,0,0,0
2019-09-16T01:28:00+09:00,0.2,�É�,0.9,�k��,23.4,82.2,0,0,0,0
2019-09-16T01:29:00+09:00,0.2,�É�,0.8,�쐼,23.4,82,0,0,0,0
2019-09-16T01:30:00+09:00,0.2,�É�,0.8,�쐼,23.5,82,0,0,0,0
2019-09-16T01:31:00+09:00,0.2,�É�,0.8,�쐼,23.6,82,0,0,0,0
2019-09-16T01:32:00+09:00,0.2,�É�,0.8,�쐼,23.4,81.9,0,0,0,0
2019-09-16T01:33:00+09:00,0.2,�É�,1,�k�k��,23.5,82,0,0,0,0
2019-09-16T01:34:00+09:00,0.3,���k��,1,�k�k��,23.7,81.6,0,0,0,0
2019-09-16T01:35:00+09:00,0.3,�k��,1,�k�k��,23.7,81.4,0,0,0,0
2019-09-16T01:36:00+09:00,0.3,�k�k��,1.6,��,23.7,81.2,0,0,0,0
2019-09-16T01:37:00+09:00,0.4,�k�k��,2,���k��,23.7,81.2,0,0,0,0
2019-09-16T01:38:00+09:00,0.5,�k�k��,2,���k��,23.7,81.2,0,0,0,0
2019-09-16T01:39:00+09:00,0.5,�k�k��,2,���k��,23.7,81.2,0,0,0,0
2019-09-16T01:40:00+09:00,0.5,�k�k��,2,���k��,23.6,81.2,0,0,0,0
2019-09-16T01:41:00+09:00,0.5,�k�k��,2,���k��,23.7,81.3,0,0,0,0
2019-09-16T01:42:00+09:00,0.5,�k�k��,2,���k��,23.7,81.2,0,0,0,0
2019-09-16T01:43:00+09:00,0.5,�k�k��,2,���k��,23.7,81,0,0,0,0
2019-09-16T01:44:00+09:00,0.5,�k�k��,2,���k��,23.7,81.1,0,0,0,0
2019-09-16T01:45:00+09:00,0.5,�k,2,���k��,23.6,81.1,0,0,0,0
2019-09-16T01:46:00+09:00,0.5,�k,2,���k��,23.6,81.5,0,0,0,0
2019-09-16T01:47:00+09:00,0.4,�k,1.2,�k��,23.5,81.7,0,0,0,0
2019-09-16T01:48:00+09:00,0.3,�k,0.9,�k�k��,23.3,82.1,0,0,0,0
2019-09-16T01:49:00+09:00,0.3,�k,0.9,�k�k��,23.4,82.5,0,0,0,0
2019-09-16T01:50:00+09:00,0.3,�k,0.9,�k�k��,23.5,82.4,0,0,0,0
2019-09-16T01:51:00+09:00,0.3,�k�k��,0.9,�k�k��,23.4,82.4,0,0,0,0
2019-09-16T01:52:00+09:00,,,,,,,,,,
2019-09-16T01:53:00+09:00,0.3,�k�k��,0.9,�k�k��,23.4,82.8,0,0,0,0
2019-09-16T01:54:00+09:00,0.3,�k��,0.9,�k�k��,23.5,82.8,0,0,0,0
2019-09-16T01:55:00+09:00,0.3,�k�k��,0.9,�k�k��,23.4,82.8,0,0,0,0
2019-09-16T01:56:00+09:00,0.4,�k�k��,1.4,�k�k��,23.4,82.8,0,0,0,0
2019-09-16T01:57:00+09:00,0.4,�k�k��,1.4,�k�k��,23.4,82.7,0,0,0,0
2019-09-16T01:58:00+09:00,0.6,�k�k��,2.6,�k�k��,23.6,82.4,0,0,0,0
2019-09-16T01:59:00+09:00,0.7,�k�k��,2.6,�k�k��,23.7,82,0,0,0,0
2019-09-16T02:00:00+09:00,0.7,�k�k��,2.6,�k�k��,23.7,81.7,0,0,0,0
2019-09-16T02:01:00+09:00,0.7,�k,2.6,�k�k��,23.7,81.6,0,0,0,0
2019-09-16T02:02:00+09:00,0.7,�k,2.6,�k�k��,23.7,81.6,0,0,0,0
2019-09-16T02:03:00+09:00,0.9,�k�k��,3,�k��,23.6,81.6,0,0,0,0
2019-09-16T02:04:00+09:00,1.1,�k�k��,3.2,���k��,23.7,81.6,0,0,0,0
2019-09-16T02:05:00+09:00,1.2,�k�k��,3.2,���k��,23.6,81.7,0,0,0,0
2019-09-16T02:06:00+09:00,1.2,�k�k��,3.2,���k��,23.6,81.8,0,0,0,0
2019-09-16T02:07:00+09:00,1.1,�k�k��,3.2,���k��,23.5,82,0,0,0,0
2019-09-16T02:08:00+09:00,1.1,�k�k��,3.2,���k��,23.5,82,0,0,0,0
2019-09-16T02:09:00+09:00,1,�k,3.2,���k��,23.5,82.2,0,0,0,0
2019-09-16T02:10:00+09:00,1,�k�k��,3.2,���k��,23.3,82.5,0,0,0,0
2019-09-16T02:11:00+09:00,0.9,�k�k��,3.2,���k��,23.4,82.7,0,0,0,0
2019-09-16T02:12:00+09:00,0.9,�k,3.2,���k��,23.4,82.7,0,0,0,0
2019-09-16T02:13:00+09:00,0.8,�k�k��,3.2,���k��,23.4,82.8,0,0,0,0
2019-09-16T02:14:00+09:00,0.5,�k,2.4,�k�k��,23.4,82.8,0,0,0,0
2019-09-16T02:15:00+09:00,0.5,�k,1.2,��,23.4,82.7,0,0,0,0
2019-09-16T02:16:00+09:00,0.5,�k�k��,1.7,�k��,23.3,83,0,0,0,0
2019-09-16T02:17:00+09:00,0.5,�k�k��,1.7,�k��,23.4,83.1,0,0,0,0
2019-09-16T02:18:00+09:00,0.5,�k�k��,1.7,�k��,23.3,83,0,0,0,0
2019-09-16T02:19:00+09:00,0.5,�k�k��,1.7,�k��,23.3,83.2,0,0,0,0
2019-09-16T02:20:00+09:00,0.6,�k�k��,1.9,���k��,23.3,83.3,0,0,0,0
2019-09-16T02:21:00+09:00,0.7,�k�k��,1.9,���k��,23.4,83.2,0,0,0,0
2019-09-16T02:22:00+09:00,0.8,�k�k��,1.9,���k��,23.4,83.1,0,0,0,0
2019-09-16T02:23:00+09:00,,,,,,,,,,
2019-09-16T02:24:00+09:00,1,�k�k��,2.3,�k,23.5,82.7,0,0,0,0
2019-09-16T02:25:00+09:00,1.1,�k�k��,2.4,�k�k��,23.5,82.5,0,0,0,0
2019-09-16T02:26:00+09:00,1.1,�k�k��,2.4,�k�k��,23.6,82.2,0,0,0,0
2019-09-16T02:27:00+09:00,1.1,�k�k��,2.4,�k�k��,23.6,82,0,0,0,0
2019-09-16T02:28:00+09:00,1.1,�k,2.4,�k�k��,23.6,82,0,0,0,0
2019-09-16T02:29:00+09:00,1,�k,2.4,�k�k��,23.6,82.1,0,0,0,0
2019-09-16T02:30:00+09:00,1,�k,2.4,�k�k��,23.5,82.1,0,0,0,0
2019-09-16T02:31:00+09:00,0.9,�k,2.4,�k�k��,23.4,82.2,0,0,0,0
2019-09-16T02:32:00+09:00,0.8,�k,2.4,�k�k��,23.4,82.5,0,0,0,0
2019-09-16T02:33:00+09:00,0.8,�k,2.4,�k�k��,23.5,82.3,0,0,0,0
2019-09-16T02:34:00+09:00,0.7,�k,2.4,�k�k��,23.4,82.3,0,0,0,0
2019-09-16T02:35:00+09:00,0.6,�k,1.7,�k�k��,23.4,82.4,0,0,0,0
2019-09-16T02:36:00+09:00,0.6,�k,1.7,�k�k��,23.3,82.3,0,0,0,0
2019-09-16T02:37:00+09:00,0.6,�k�k��,1.7,�k�k��,23.4,82.4,0,0,0,0
2019-09-16T02:38:00+09:00,0.6,�k�k��,1.5,�k��,23.3,82.4,0,0,0,0
2019-09-16T02:39:00+09:00,0.6,�k�k��,1.5,�k��,23.2,83,0,0,0,0
2019-09-16T02:40:00+09:00,0.7,�k�k��,1.5,�k��,23.2,83.3,0,0,0,0
2019-09-16T02:41:00+09:00,0.7,�k�k��,1.5,�k��,23.3,83.3,0,0,0,0
2019-09-16T02:42:00+09:00,0.8,�k�k��,1.8,�k��,23.3,83,0,0,0,0
2019-09-16T02:43:00+09:00,0.8,�k�k��,1.8,�k��,23.4,82.6,0,0,0,0
2019-09-16T02:44:00+09:00,0.8,�k�k��,1.8,�k��,23.4,82.3,0,0,0,0
2019-09-16T02:45:00+09:00,0.9,�k�k��,2,�k,23.5,82.2,0,0,0,0
2019-09-16T02:46:00+09:00,0.9,�k�k��,2,�k,23.5,81.9,0,0,0,0
2019-09-16T02:47:00+09:00,0.9,�k�k��,2,�k,23.5,81.6,0,0,0,0
2019-09-16T02:48:00+09:00,0.9,�k,2,�k,23.5,81.6,0,0,0,0
2019-09-16T02:49:00+09:00,0.9,�k,2,�k,23.6,81.6,0,0,0,0
2019-09-16T02:50:00+09:00,0.9,�k,2,�k,23.5,81.6,0,0,0,0
2019-09-16T02:51:00+09:00,0.9,�k�k��,2,�k,23.4,81.8,0,0,0,0
2019-09-16T02:52:00+09:00,0.9,�k�k��,2.7,�k�k��,23.3,82.1,0,0,0,0
2019-09-16T02:53:00+09:00,1,�k�k��,2.7,�k�k��,23.3,82.3,0,0,0,0
2019-09-16T02:54:00+09:00,1,�k�k��,2.7,�k�k��,23.3,82.4,0,0,0,0
2019-09-16T02:55:00+09:00,,,,,,,,,,
2019-09-16T02:56:00+09:00,0.9,�k�k��,2.7,�k�k��,23.1,82.9,0,0,0,0
2019-09-16T02:57:00+09:00,0.9,�k�k��,2.8,�k��,23,83.2,0,0,0,0
2019-09-16T02:58:00+09:00,1,�k�k��,2.8,�k��,23.2,83.2,0,0,0,0
2019-09-16T02:59:00+09:00,1,�k�k��,2.8,�k��,23.2,82.9,0,0,0,0
2019-09-16T03:00:00+09:00,1,�k�k��,2.8,�k��,23.3,82.6,0,0,0,0
2019-09-16T03:01:00+09:00,0.9,�k�k��,2.8,�k��,23.3,82.5,0,0,0,0
2019-09-16T03:02:00+09:00,0.7,�k,2.8,�k��,23.3,82.4,0,0,0,0
2019-09-16T03:03:00+09:00,0.7,�k,2.8,�k��,23.2,82.6,0,0,0,0
2019-09-16T03:04:00+09:00,0.7,�k,2.8,�k��,23.2,82.6,0,0,0,0
2019-09-16T03:05:00+09:00,0.8,�k�k��,2.8,�k��,23.3,82.4,0,0,0,0
2019-09-16T03:06:00+09:00,1,�k�k��,3.8,�k��,23.4,82,0,0,0,0
2019-09-16T03:07:00+09:00,1,�k�k��,3.9,��,23.6,81.4,0,0,0,0
2019-09-16T03:08:00+09:00,1,�k,3.9,��,23.5,81.2,0,0,0,0
2019-09-16T03:09:00+09:00,1,�k�k��,3.9,��,23.4,81.3,0,0,0,0
2019-09-16T03:10:00+09:00,1.1,�k�k��,3.9,��,23.4,81.4,0,0,0,0
2019-09-16T03:11:00+09:00,1.1,�k��,3.9,��,23.3,81.5,0,0,0,0
2019-09-16T03:12:00+09:00,1.1,�k��,3.9,��,23.2,82,0,0,0,0
2019-09-16T03:13:00+09:00,1.1,�k��,3.9,��,23.2,82.3,0,0,0,0
2019-09-16T03:14:00+09:00,1,�k��,3.9,��,23.1,82.7,0,0,0,0
2019-09-16T03:15:00+09:00,1.1,�k��,3.9,��,23.2,82.6,0,0,0,0
2019-09-16T03:16:00+09:00,0.9,�k�k��,3.9,��,23.4,81.9,0,0,0,0
2019-09-16T03:17:00+09:00,0.9,�k�k��,3.3,���k��,23.5,81.3,0,0,0,0
2019-09-16T03:18:00+09:00,1,�k��,4.2,���k��,23.6,81,0,0,0,0
2019-09-16T03:19:00+09:00,0.9,�k�k��,4.2,���k��,23.6,80.7,0,0,0,0
2019-09-16T03:20:00+09:00,1,�k�k��,4.3,���k��,23.6,80.5,0,0,0,0
2019-09-16T03:21:00+09:00,1.1,�k�k��,5.5,���쐼,23.7,80.1,0,0,0,0
2019-09-16T03:22:00+09:00,1.3,�k�k��,5.5,���쐼,23.7,79.8,0,0,0,0
2019-09-16T03:23:00+09:00,1.7,�k�k��,6.4,���k��,23.8,79.3,0,0,0,0
2019-09-16T03:24:00+09:00,1.8,�k��,6.4,���k��,23.9,79,0,0,0,0
2019-09-16T03:25:00+09:00,1.9,�k��,6.4,���k��,23.9,78.9,0,0,0,0
2019-09-16T03:26:00+09:00,2,�k��,6.4,���k��,23.9,78.9,0,0,0,0
2019-09-16T03:27:00+09:00,2.1,�k��,6.4,���k��,23.8,79,0,0,0,0
2019-09-16T03:28:00+09:00,2.1,�k��,6.4,���k��,23.8,79.1,0,0,0,0
2019-09-16T03:29:00+09:00,2.3,�k��,6.4,���k��,23.8,79.1,0,0,0,0
2019-09-16T03:30:00+09:00,,,,,,,,,,
2019-09-16T03:31:00+09:00,2.1,�k��,6.4,���k��,23.8,78.7,0,0,0,0
2019-09-16T03:32:00+09:00,2.1,�k��,6.4,���k��,23.9,78.4,0,0,0,0
2019-09-16T03:33:00+09:00,1.8,�k��,5.4,��,23.9,78.3,0,0,0,0
2019-09-16T03:34:00+09:00,1.7,�k��,5.4,��,23.8,78.3,0,0,0,0
2019-09-16T03:35:00+09:00,1.6,�k��,5.4,��,23.8,78.3,0,0,0,0
2019-09-16T03:36:00+09:00,1.5,�k�k��,5.1,���k��,23.8,78.4,0,0,0,0
2019-09-16T03:37:00+09:00,1.4,�k�k��,3.8,�k,23.8,78.2,0,0,0,0
2019-09-16T03:38:00+09:00,1.3,�k�k��,3.8,�k,23.8,78,0,0,0,0
2019-09-16T03:39:00+09:00,1.4,�k�k��,3.4,�k�k��,23.9,77.8,0,0,0,0
2019-09-16T03:40:00+09:00,1.3,�k�k��,3.4,�k�k��,23.9,78,0,0,0,0
2019-09-16T03:41:00+09:00,1.4,�k�k��,3.6,�k��,23.9,77.7,0,0,0,0
2019-09-16T03:42:00+09:00,1.4,�k�k��,3.6,�k��,23.9,77.5,0,0,0,0
2019-09-16T03:43:00+09:00,1.6,�k�k��,5.4,�k��,23.9,77.5,0,0,0,0
2019-09-16T03:44:00+09:00,1.7,�k�k��,5.4,�k��,23.9,77.7,0,0,0,0
2019-09-16T03:45:00+09:00,1.8,�k�k��,5.4,�k��,23.9,77.7,0,0,0,0
2019-09-16T03:46:00+09:00,1.8,�k�k��,5.4,�k��,23.9,77.9,0,0,0,0
2019-09-16T03:47:00+09:00,1.9,�k�k��,5.4,�k��,23.9,77.8,0,0,0,0
2019-09-16T03:48:00+09:00,1.9,�k�k��,5.4,�k��,23.9,77.7,0,0,0,0
2019-09-16T03:49:00+09:00,1.7,�k�k��,5.4,�k��,23.9,77.8,0,0,0,0
2019-09-16T03:50:00+09:00,1.7,�k�k��,5.4,�k��,23.8,78,0,0,0,0
2019-09-16T03:51:00+09:00,1.6,�k��,5.4,�k��,23.9,78,0,0,0,0
2019-09-16T03:52:00+09:00,1.9,�k��,6.1,���k��,24,77.6,0,0,0,0
2019-09-16T03:53:00+09:00,1.6,�k��,6.1,���k��,24,77.5,0,0,0,0
2019-09-16T03:54:00+09:00,1.7,�k��,6.4,�k�k��,24,77.5,0,0,0,0
2019-09-16T03:55:00+09:00,1.7,�k��,6.4,�k�k��,24,77.3,0,0,0,0
2019-09-16T03:56:00+09:00,1.7,�k��,6.4,�k�k��,24,77.2,0,0,0,0
2019-09-16T03:57:00+09:00,1.5,�k�k��,6.4,�k�k��,24,77.2,0,0,0,0
2019-09-16T03:58:00+09:00,,,,,,,,,,
2019-09-16T03:59:00+09:00,1.6,�k��,6.4,�k�k��,24,77.5,0,0,0,0
2019-09-16T04:00:00+09:00,,,,,,,,,,
2019-09-16T04:01:00+09:00,1.5,�k��,6.4,�k�k��,23.9,77.7,0,0,0,0
2019-09-16T04:02:00+09:00,1.2,�k��,6.4,�k�k��,23.9,77.8,0,0,0,0
2019-09-16T04:03:00+09:00,1.3,�k��,6.4,�k�k��,23.9,77.8,0,0,0,0
2019-09-16T04:04:00+09:00,1.1,�k��,3,�k,24,77.7,0,0,0,0
2019-09-16T04:05:00+09:00,1.1,�k�k��,3,�k,23.9,77.7,0,0,0,0
2019-09-16T04:06:00+09:00,1,�k�k��,3,�k,23.9,77.7,0,0,0,0
2019-09-16T04:07:00+09:00,1,�k�k��,3,�k,23.9,77.7,0,0,0,0
2019-09-16T04:08:00+09:00,1,�k�k��,3,�k,23.9,77.8,0,0,0,0
2019-09-16T04:09:00+09:00,1,�k�k��,3,�k,24,77.6,0,0,0,0
2019-09-16T04:10:00+09:00,1,�k,3,�k,24.1,77.4,0,0,0,0
2019-09-16T04:11:00+09:00,1,�k,3,�k,24,77.3,0,0,0,0
2019-09-16T04:12:00+09:00,1,�k,3,�k,24,77.4,0,0,0,0
2019-09-16T04:13:00+09:00,0.9,�k,2.7,�k,24,77.4,0,0,0,0
2019-09-16T04:14:00+09:00,0.9,�k�k��,2.7,�k,24,77.5,0,0,0,0
2019-09-16T04:15:00+09:00,0.8,�k,2.7,�k,24,77.4,0,0,0,0
2019-09-16T04:16:00+09:00,0.8,�k,2.7,�k,24,77.6,0,0,0,0
2019-09-16T04:17:00+09:00,0.8,�k,2.7,�k,23.9,77.7,0,0,0,0
2019-09-16T04:18:00+09:00,0.8,�k�k��,2.7,�k,23.9,77.8,0,0,0,0
2019-09-16T04:19:00+09:00,0.6,�k�k��,1.9,�k�k��,23.9,78,0,0,0,0
2019-09-16T04:20:00+09:00,0.6,�k�k��,1.9,�k�k��,23.8,78.3,0,0,0,0
2019-09-16T04:21:00+09:00,0.6,�k�k��,1.9,�k�k��,23.6,78.7,0,0,0,0
2019-09-16T04:22:00+09:00,0.6,�k��,1.9,�k�k��,23.5,79.2,0,0,0,0
2019-09-16T04:23:00+09:00,0.6,�k��,1.9,�k�k��,23.5,79.8,0,0,0,0
2019-09-16T04:24:00+09:00,0.6,�k��,1.3,���k��,23.5,80.3,0,0,0,0
2019-09-16T04:25:00+09:00,0.6,�k��,1.3,���k��,23.5,80.6,0,0,0,0
2019-09-16T04:26:00+09:00,0.5,���k��,1.3,���k��,23.4,80.8,0,0,0,0
2019-09-16T04:27:00+09:00,0.6,���k��,1.3,���k��,23.3,81,0,0,0,0
2019-09-16T04:28:00+09:00,0.6,���k��,1.3,���k��,23.5,81.2,0,0,0,0
2019-09-16T04:29:00+09:00,0.6,�k��,1.3,���k��,23.5,80.9,0,0,0,0
2019-09-16T04:30:00+09:00,,,,,,,,,,
2019-09-16T04:31:00+09:00,0.6,�k��,1.3,���k��,23.5,80.8,0,0,0,0
2019-09-16T04:32:00+09:00,,,,,,,,,,
2019-09-16T04:33:00+09:00,0.5,�k�k��,1,�k�k��,23.7,79.9,0,0,0,0
2019-09-16T04:34:00+09:00,0.4,�k�k��,1,�k�k��,23.8,79.5,0,0,0,0
2019-09-16T04:35:00+09:00,0.4,�k�k��,1,�k�k��,23.8,79.3,0,0,0,0
2019-09-16T04:36:00+09:00,0.5,�k�k��,1,�k�k��,23.7,79.9,0,0,0,0
2019-09-16T04:37:00+09:00,0.5,�k�k��,1.6,���k��,23.6,80.4,0,0,0,0
2019-09-16T04:38:00+09:00,0.5,�k�k��,1.6,���k��,23.6,80.2,0,0,0,0
2019-09-16T04:39:00+09:00,0.5,�k�k��,1.6,���k��,23.6,80.4,0,0,0,0
2019-09-16T04:40:00+09:00,0.6,�k�k��,1.6,���k��,23.6,80.6,0,0,0,0
2019-09-16T04:41:00+09:00,0.6,�k�k��,1.6,���k��,23.7,80.8,0,0,0,0
2019-09-16T04:42:00+09:00,0.6,�k�k��,1.6,���k��,23.8,80.3,0,0,0,0
2019-09-16T04:43:00+09:00,0.7,�k�k��,1.6,���k��,23.9,79.4,0,0,0,0
2019-09-16T04:44:00+09:00,0.8,�k�k��,1.6,���k��,23.9,78.8,0,0,0,0
2019-09-16T04:45:00+09:00,0.9,�k�k��,2,���k��,23.9,78.8,0,0,0,0
2019-09-16T04:46:00+09:00,0.9,�k�k��,2,���k��,23.9,78.9,0,0,0,0
2019-09-16T04:47:00+09:00,1,�k�k��,2.1,���k��,23.9,79,0,0,0,0
2019-09-16T04:48:00+09:00,1,�k�k��,2.1,���k��,23.8,79,0,0,0,0
2019-09-16T04:49:00+09:00,1.1,�k�k��,2.1,���k��,23.8,79.3,0,0,0,0
2019-09-16T04:50:00+09:00,1.1,�k�k��,2.1,���k��,23.9,79.3,0,0,0,0
2019-09-16T04:51:00+09:00,1.1,�k�k��,2.1,���k��,23.9,79.1,0,0,0,0
2019-09-16T04:52:00+09:00,1.1,�k��,2.1,���k��,23.8,79.4,0,0,0,0
2019-09-16T04:53:00+09:00,1.1,�k��,2.1,���k��,23.8,79.5,0,0,0,0
2019-09-16T04:54:00+09:00,1.1,�k��,2.1,���k��,23.8,79.4,0,0,0,0
2019-09-16T04:55:00+09:00,1,�k��,2.1,���k��,23.8,79.2,0,0,0,0
2019-09-16T04:56:00+09:00,1,�k��,2.1,���k��,23.8,79.1,0,0,0,0
2019-09-16T04:57:00+09:00,0.9,�k��,2.1,�k��,23.9,79,0,0,0,0
2019-09-16T04:58:00+09:00,0.8,�k��,2.1,�k��,23.9,78.6,0,0,0,0
2019-09-16T04:59:00+09:00,0.7,�k�k��,2.1,�k��,23.9,78.7,0,0,0,0
2019-09-16T05:00:00+09:00,0.8,�k�k��,2.1,�k��,23.9,78.5,0,0,0,0
2019-09-16T05:01:00+09:00,0.8,�k�k��,2.1,�k��,23.9,78.2,0,0,0,0
2019-09-16T05:02:00+09:00,0.8,�k�k��,2.1,�k��,23.9,78.2,0,0,0,0
2019-09-16T05:03:00+09:00,0.7,�k�k��,2.1,�k��,23.8,78.3,0,0,0,0
2019-09-16T05:04:00+09:00,,,,,,,,,,
2019-09-16T05:05:00+09:00,0.7,�k�k��,2,�k�k��,23.8,78.7,0,0,0,0
2019-09-16T05:06:00+09:00,0.7,�k�k��,2,�k�k��,23.9,78.5,0,0,0,0
2019-09-16T05:07:00+09:00,0.7,�k,2,�k�k��,23.9,78.5,0,0,0,0
2019-09-16T05:08:00+09:00,0.7,�k,2,�k�k��,23.9,78.5,0,0,0,0
2019-09-16T05:09:00+09:00,0.7,�k,2,�k�k��,23.9,78.5,0,0,0,0
2019-09-16T05:10:00+09:00,0.6,�k�k��,1.8,�k��,23.9,78.8,0,0,0,0
2019-09-16T05:11:00+09:00,0.6,�k,1.4,�k��,23.7,79,0,0,0,0
2019-09-16T05:12:00+09:00,0.5,�k,1.4,�k��,23.8,78.1,0,0,0,0
2019-09-16T05:13:00+09:00,0.5,�k�k��,1.4,�k��,23.9,78.3,0,0,0,0
2019-09-16T05:14:00+09:00,0.5,�k,1.4,�k��,23.9,78.4,0,0,0,0
2019-09-16T05:15:00+09:00,0.5,�k�k��,1.4,�k��,23.8,78.8,0,0,0,0
2019-09-16T05:16:00+09:00,0.5,�k�k��,1.4,�k��,23.8,79,0,0,0,0
2019-09-16T05:17:00+09:00,0.6,�k�k��,1.4,�k��,23.8,78.9,0,0,0,0
2019-09-16T05:18:00+09:00,0.6,�k�k��,1.4,�k��,23.8,79.2,0,0,0,0
2019-09-16T05:19:00+09:00,0.6,�k�k��,1.7,��,23.8,78.5,0,0,0,0
2019-09-16T05:20:00+09:00,0.6,�k�k��,1.7,��,23.9,78.4,0,0,0,0
2019-09-16T05:21:00+09:00,0.6,�k�k��,1.7,��,23.9,78.3,0,0,0,0
2019-09-16T05:22:00+09:00,0.7,�k�k��,1.7,��,23.8,78.5,0,0,0,0
2019-09-16T05:23:00+09:00,0.7,�k�k��,1.7,��,23.9,78.5,0,0,0,0
2019-09-16T05:24:00+09:00,0.7,�k�k��,1.7,��,23.8,78.6,0,0,0,0
2019-09-16T05:25:00+09:00,0.8,�k�k��,2.2,�k��,23.8,78.8,0,0,0,0
2019-09-16T05:26:00+09:00,0.7,�k�k��,2.2,�k��,23.8,78.7,0,0,0,0
2019-09-16T05:27:00+09:00,0.7,�k�k��,2.2,�k��,23.9,77.1,0,0,0,0
2019-09-16T05:28:00+09:00,0.7,�k�k��,2.2,�k��,24.1,76.3,0,0,0,0
2019-09-16T05:29:00+09:00,0.7,�k,2.2,�k��,24.1,76,0,0,0,0
2019-09-16T05:30:00+09:00,0.7,�k,2.2,�k��,24,76.2,0,0,0,0
2019-09-16T05:31:00+09:00,0.7,�k,2.2,�k��,24,76.4,0,0,0,0
2019-09-16T05:32:00+09:00,0.7,�k,2.2,�k��,23.9,76.9,0,0,0,0
2019-09-16T05:33:00+09:00,0.7,�k,2.2,�k��,23.9,77.1,0,0,0,0
2019-09-16T05:34:00+09:00,0.7,�k,2.2,�k��,23.9,77.2,0,0,0,0
2019-09-16T05:35:00+09:00,0.7,�k,2,�k��,23.9,77.3,0,0,0,0
2019-09-16T05:36:00+09:00,,,,,,,,,,
2019-09-16T05:37:00+09:00,0.8,�k,2,�k��,23.8,78,0,0,0,0
2019-09-16T05:38:00+09:00,0.8,�k,2,�k,23.9,77.2,0,0,0,0
2019-09-16T05:39:00+09:00,0.8,�k,2,�k,24,76.5,0,0,0,0
2019-09-16T05:40:00+09:00,0.7,�k,2,�k,24,76.3,0,0,0,0
2019-09-16T05:41:00+09:00,0.7,�k,2,�k,24.1,76.1,0,0,0,0
2019-09-16T05:42:00+09:00,0.7,�k�k��,2,�k,24.1,76.1,0,0,0,0
2019-09-16T05:43:00+09:00,0.7,�k,2.1,���k��,24,76.7,0,0,0,0
2019-09-16T05:44:00+09:00,0.8,�k,2.1,���k��,23.9,76.7,0,0,0,0
2019-09-16T05:45:00+09:00,0.8,�k,2.1,���k��,23.9,76.8,0,0,0,0
2019-09-16T05:46:00+09:00,0.9,�k,4.7,���k��,23.9,76.7,0,0,0,0
2019-09-16T05:47:00+09:00,0.9,�k,4.7,���k��,24,76.1,0,0,0,0
2019-09-16T05:48:00+09:00,1,�k,4.7,���k��,24.1,75.8,0,0,0,0
2019-09-16T05:49:00+09:00,1,�k,4.7,���k��,24.2,75.6,0,0,0,0
2019-09-16T05:50:00+09:00,1.1,�k,4.7,���k��,24.1,75.8,0,0,0,0
2019-09-16T05:51:00+09:00,1.2,�k�k��,4.7,���k��,24,76.2,0,0,0,0
2019-09-16T05:52:00+09:00,1.3,�k�k��,4.7,���k��,24.1,75.8,0,0,0,0
2019-09-16T05:53:00+09:00,1.2,�k�k��,4.7,���k��,24.1,75.6,0,0,0,0
2019-09-16T05:54:00+09:00,1.2,�k�k��,4.7,���k��,24.2,75.5,0,0,0,0
2019-09-16T05:55:00+09:00,1.2,�k,4.7,���k��,24.1,75.5,0,0,0,0
2019-09-16T05:56:00+09:00,1.1,�k,4.4,���k��,24.1,75.6,0,0,0,0
2019-09-16T05:57:00+09:00,1,�k,3.1,�k��,23.9,76.2,0,0,0,0
2019-09-16T05:58:00+09:00,1.1,�k,4.3,���k��,23.9,76.5,0,0,0,0
2019-09-16T05:59:00+09:00,1.1,�k,4.3,���k��,24,76.3,0,0,0,0
2019-09-16T06:00:00+09:00,1.1,�k,5.1,��,24,76.3,0,0,0,0
2019-09-16T06:01:00+09:00,1.2,�k,5.1,��,24.1,76.1,0,0,0,0
2019-09-16T06:02:00+09:00,1.3,�k�k��,5.1,��,24.1,75.9,0,0,0,0
2019-09-16T06:03:00+09:00,1.4,�k�k��,5.1,��,24.1,75.9,0,0,0,0
2019-09-16T06:04:00+09:00,1.5,�k�k��,5.1,��,24,76.3,0,0,0,0
2019-09-16T06:05:00+09:00,1.6,�k�k��,5.1,��,23.8,76.8,0,0,0,0
2019-09-16T06:06:00+09:00,1.6,�k�k��,5.1,��,23.8,77.3,0,0,0,0
2019-09-16T06:07:00+09:00,,,,,,,,,,
2019-09-16T06:08:00+09:00,1.5,�k,5.1,��,23.8,77,0,0,0,0
2019-09-16T06:09:00+09:00,1.5,�k�k��,5.1,��,23.8,77,0,0,0,0
2019-09-16T06:10:00+09:00,,,,,,,,,,
2019-09-16T06:11:00+09:00,1.3,�k�k��,5,�k��,24,76.3,0,0,0,0
2019-09-16T06:12:00+09:00,1.2,�k,4.4,�k,24,76.3,0,0,0,0
2019-09-16T06:13:00+09:00,1.1,�k,4.4,�k,23.9,76.5,0,0,0,0
2019-09-16T06:14:00+09:00,0.9,�k,4.4,�k,23.9,76.4,0,0,0,0
2019-09-16T06:15:00+09:00,0.9,�k,4.4,�k,24,75.9,0,0,0,0
2019-09-16T06:16:00+09:00,0.9,�k�k��,2.5,���k��,24,76,0,0,0,0
2019-09-16T06:17:00+09:00,0.9,�k�k��,2.5,���k��,24.1,76,0,0,0,0
2019-09-16T06:18:00+09:00,0.9,�k�k��,2.5,���k��,24.1,75.8,0,0,0,0
2019-09-16T06:19:00+09:00,1,�k�k��,2.5,���k��,24,75.9,0,0,0,0
2019-09-16T06:20:00+09:00,1,�k�k��,2.5,���k��,24.1,76,0,0,0,0
2019-09-16T06:21:00+09:00,0.9,�k�k��,2.5,���k��,24.1,76,0,0,0,0
2019-09-16T06:22:00+09:00,0.8,�k�k��,2.5,���k��,24,76.2,0,0,0,0
2019-09-16T06:23:00+09:00,0.8,�k,2.5,���k��,23.9,76.4,0,0,0,0
2019-09-16T06:24:00+09:00,0.9,�k�k��,2.5,���k��,23.9,76.5,0,0,0,0
2019-09-16T06:25:00+09:00,0.8,�k�k��,2.5,���k��,24,76.5,0,0,0,0
2019-09-16T06:26:00+09:00,0.7,�k,2.5,�k��,24,76.5,0,0,0,0
2019-09-16T06:27:00+09:00,0.7,�k,2.5,�k��,24,76.4,0,0,0,0